Location: Chenereilles
(45.4866°N, 4.0790°E)
Time: 18:23:59
(UTC+00:00)

NOSS 3-1 (A) - Pass Details

Date: 12 November 2019
Orbit: 769 x 1443 km, 63.4° (Epoch: 01 December)

Event Time Altitude Azimuth Distance (km) Brightness Sun altitude
Rises 18:31:03 0° 210° (SSW) 3,279 6.7 -23.5°
Reaches altitude 10° 18:33:21 10° 208° (SSW) 2,396 5.9 -23.9°
Maximum altitude 18:38:48 74° 124° (SE) 921 3.1 -24.9°
Enters shadow 18:39:49 60° 64° (ENE) 1,027 3.3 -25.1°
